TimeAKST,TemperatureF,Dew PointF,Humidity,Sea Level PressureIn,VisibilityMPH,Wind Direction,Wind SpeedMPH,Gust SpeedMPH,PrecipitationIn,Events,Conditions,WindDirDegrees,DateUTC
12:53 AM,-5.1,-9.0,83,29.56,10.0,NNE,10.4,-,N/A,,Clear,30,2012-12-18 09:53:00
1:53 AM,-4.0,-8.0,83,29.53,10.0,ENE,5.8,-,N/A,,Clear,60,2012-12-18 10:53:00
3:53 AM,1.0,-2.9,83,29.49,10.0,NE,9.2,-,N/A,,Mostly Cloudy,50,2012-12-18 12:53:00
4:53 AM,1.9,-2.0,83,29.48,10.0,NNE,6.9,-,N/A,,Scattered Clouds,30,2012-12-18 13:53:00
5:53 AM,3.0,-0.9,84,29.47,10.0,NE,6.9,-,N/A,,Mostly Cloudy,50,2012-12-18 14:53:00
6:53 AM,6.1,1.9,83,29.46,10.0,NE,10.4,-,N/A,,Scattered Clouds,40,2012-12-18 15:53:00
7:53 AM,7.0,3.0,84,29.46,10.0,NE,13.8,-,N/A,,Partly Cloudy,40,2012-12-18 16:53:00
8:53 AM,7.0,1.9,80,29.46,10.0,NNE,11.5,-,N/A,,Clear,30,2012-12-18 17:53:00
9:53 AM,6.1,1.9,83,29.46,10.0,NE,5.8,-,N/A,,Clear,40,2012-12-18 18:53:00
10:53 AM,6.1,1.0,80,29.46,10.0,NE,6.9,-,N/A,,Partly Cloudy,50,2012-12-18 19:53:00
11:53 AM,3.9,-0.0,84,29.46,10.0,Calm,Calm,-,N/A,,Clear,0,2012-12-18 20:53:00
12:53 PM,6.1,1.0,80,29.46,10.0,ENE,4.6,-,N/A,,Clear,70,2012-12-18 21:53:00
1:53 PM,6.1,1.0,80,29.45,10.0,ENE,8.1,-,N/A,,Clear,60,2012-12-18 22:53:00
2:53 PM,6.1,1.0,80,29.44,10.0,NE,4.6,-,N/A,,Clear,40,2012-12-18 23:53:00
3:53 PM,6.1,1.0,80,29.45,10.0,ENE,5.8,-,N/A,,Mostly Cloudy,60,2012-12-19 00:53:00
4:53 PM,6.1,1.9,83,29.45,10.0,Calm,Calm,-,N/A,,Overcast,0,2012-12-19 01:53:00
5:53 PM,6.1,1.0,80,29.46,10.0,Calm,Calm,-,N/A,,Mostly Cloudy,0,2012-12-19 02:53:00
6:53 PM,5.0,1.0,84,29.47,10.0,Calm,Calm,-,N/A,,Overcast,0,2012-12-19 03:53:00
7:53 PM,1.9,-0.9,88,29.48,10.0,Calm,Calm,-,N/A,,Mostly Cloudy,0,2012-12-19 04:53:00
8:53 PM,1.9,-2.0,83,29.49,10.0,Calm,Calm,-,N/A,,Clear,0,2012-12-19 05:53:00
9:53 PM,-2.0,-6.0,83,29.49,10.0,Calm,Calm,-,N/A,,Partly Cloudy,0,2012-12-19 06:53:00
10:53 PM,-0.9,-4.0,87,29.51,10.0,Calm,Calm,-,N/A,,Scattered Clouds,0,2012-12-19 07:53:00
11:53 PM,1.9,-2.9,80,29.52,10.0,Calm,Calm,-,N/A,,Overcast,0,2012-12-19 08:53:00